This is the latest recevied weather packets stored in our database for station/object HP1COO-13. If no packets are shown the sender has not sent any weather packets the latest 10 day(s).
| Time | Temp. | Humidity | Pressure | Rain* | Wind** | Luminosity | Snow |
|---|---|---|---|---|---|---|---|
| 1788358333 | 31.11° C | 75% | 1011.3 hPa | 0 mm | - | - | - |
| 1788357067 | 30° C | 78% | 1011.4 hPa | 0 mm | - | - | - |
| 1788356434 | 29.44° C | 78% | 1011.4 hPa | 0 mm | - | - | - |
| 1788355802 | 28.89° C | 80% | 1011.5 hPa | 0 mm | - | - | - |
| 1788355168 | 28.89° C | 79% | 1011.5 hPa | 0 mm | - | - | - |
| 1788354535 | 28.89° C | 79% | 1011.3 hPa | 0 mm | - | - | - |
| 1788353903 | 28.89° C | 81% | 1011.6 hPa | 0 mm | - | - | - |
| 1788353269 | 28.33° C | 81% | 1011.3 hPa | 0 mm | - | - | - |
| 1788352638 | 27.22° C | 86% | 1011 hPa | 0 mm | - | - | - |
| 1788352003 | 27.22° C | 85% | 1010.9 hPa | 0 mm | - | - | - |
| 1788351372 | 26.67° C | 90% | 1011.1 hPa | 0 mm | - | - | - |
| 1788350737 | 25.56° C | 92% | 1011.1 hPa | 0 mm | - | - | - |
| 1788350104 | 25° C | 94% | 1010.8 hPa | 0 mm | - | - | - |
| 1788349471 | 24.44° C | 96% | 1010.7 hPa | 0 mm | - | - | - |
| 1788348838 | 24.44° C | 96% | 1010.7 hPa | 0 mm | - | - | - |
| 1788348205 | 24.44° C | 96% | 1010.8 hPa | 0 mm | - | - | - |
| 1788347572 | 24.44° C | 96% | 1010.6 hPa | 0 mm | - | - | - |
| 1788346939 | 24.44° C | 95% | 1010.5 hPa | 0 mm | - | - | - |
| 1788346308 | 24.44° C | 95% | 1010.2 hPa | 0 mm | - | - | - |
| 1788345673 | 24.44° C | 95% | 1010.3 hPa | 0 mm | - | - | - |
| 1788345040 | 25° C | 95% | 1010 hPa | 0 mm | - | - | - |
| 1788344409 | 25° C | 95% | 1009.9 hPa | 0 mm | - | - | - |
| 1788343774 | 25° C | 94% | 1009.7 hPa | 0 mm | - | - | - |
| 1788343142 | 25° C | 94% | 1009.5 hPa | 0 mm | - | - | - |
| 1788342510 | 25° C | 93% | 1009.5 hPa | 0 mm | - | - | - |
* Rain latest hour (hover to see other rain measurements)
** Current wind speed in m/s (hover to see current wind gust speed)